When you browse on this site, cookies collect data to enhance your experience and personalize the content and advertising you see.
Visit our Privacy Policy to learn more. By continuing to use the site, you agree to this use of cookies and data.

Hourly Weather Ischgl

Today, 15 August, Saturday

Time Temperature Precipitation Wind Pressure Humidity
00:00 +6°C° 0 mm 1 mps 575 mmHg 90%
01:00 +6°C° 0 mm 1 mps 575 mmHg 90%
02:00 +5°C° 0 mm 1 mps 575 mmHg 89%
03:00 +4°C° 0 mm 0 mps 574 mmHg 89%
04:00 +4°C° 0 mm 0 mps 574 mmHg 88%
05:00 +5°C° 0 mm 0 mps 575 mmHg 84%
06:00 +7°C° 0 mm 0 mps 576 mmHg 79%
07:00 +8°C° 0 mm 0 mps 577 mmHg 75%
08:00 +10°C° 0 mm 0 mps 577 mmHg 68%
09:00 +13°C° 0 mm 1 mps 578 mmHg 62%
10:00 +14°C° 0 mm 1 mps 579 mmHg 56%
11:00 +15°C° 0 mm 1 mps 579 mmHg 53%
12:00 +16°C° 0 mm 1 mps 580 mmHg 50%
13:00 +18°C° 0 mm 1 mps 580 mmHg 46%
14:00 +18°C° 0 mm 1 mps 580 mmHg 48%
15:00 +17°C° 0 mm 2 mps 579 mmHg 50%
16:00 +17°C° 0 mm 2 mps 579 mmHg 52%
17:00 +15°C° 0.2 mm 2 mps 578 mmHg 64%
18:00 +13°C° 0.2 mm 1 mps 577 mmHg 75%
19:00 +11°C° 0.2 mm 1 mps 576 mmHg 87%
20:00 +10°C° 0.1 mm 1 mps 576 mmHg 90%
21:00 +9°C° 0.1 mm 1 mps 575 mmHg 92%
22:00 +6°C° 0.1 mm 0 mps 575 mmHg 95%
23:00 +6°C° 0 mm 0 mps 574 mmHg 94%

Tomorrow, 16 August, Sunday

Time Temperature Precipitation Wind Pressure Humidity
00:00 +6°C° 0 mm 0 mps 574 mmHg 94%
01:00 +6°C° 0 mm 0 mps 574 mmHg 94%
02:00 +5°C° 0 mm 0 mps 574 mmHg 93%
03:00 +5°C° 0 mm 0 mps 574 mmHg 92%
04:00 +5°C° 0 mm 0 mps 574 mmHg 92%
05:00 +7°C° 0 mm 0 mps 575 mmHg 89%
06:00 +9°C° 0 mm 1 mps 575 mmHg 85%
07:00 +11°C° 0 mm 1 mps 576 mmHg 82%
08:00 +12°C° 0.2 mm 1 mps 577 mmHg 76%
09:00 +14°C° 0.2 mm 1 mps 578 mmHg 70%
10:00 +15°C° 0.2 mm 1 mps 578 mmHg 64%
11:00 +16°C° 1 mm 1 mps 578 mmHg 64%
12:00 +16°C° 1 mm 1 mps 578 mmHg 63%
13:00 +16°C° 1 mm 1 mps 578 mmHg 63%
14:00 +16°C° 1.6 mm 1 mps 578 mmHg 65%
15:00 +15°C° 1.6 mm 1 mps 577 mmHg 66%
16:00 +15°C° 1.6 mm 1 mps 577 mmHg 68%
17:00 +14°C° 1.1 mm 1 mps 577 mmHg 75%
18:00 +13°C° 1.1 mm 1 mps 576 mmHg 82%
19:00 +11°C° 1.1 mm 1 mps 575 mmHg 89%
20:00 +11°C° 0.2 mm 1 mps 575 mmHg 89%
21:00 +10°C° 0.2 mm 1 mps 575 mmHg 90%
22:00 +10°C° 0.2 mm 1 mps 575 mmHg 90%
23:00 +9°C° 0.2 mm 1 mps 575 mmHg 90%

Day after tomorrow, 17 August, Monday

Time Temperature Precipitation Wind Pressure Humidity
00:00 +9°C° 0.2 mm 1 mps 574 mmHg 90%
01:00 +8°C° 0.2 mm 2 mps 574 mmHg 90%
02:00 +8°C° 0.2 mm 2 mps 574 mmHg 90%
03:00 +7°C° 0.2 mm 2 mps 574 mmHg 90%
04:00 +8°C° 0.2 mm 1 mps 574 mmHg 90%
05:00 +9°C° 0.1 mm 1 mps 574 mmHg 88%
06:00 +10°C° 0.1 mm 1 mps 574 mmHg 87%
07:00 +10°C° 0.1 mm 1 mps 575 mmHg 85%
08:00 +11°C° 0.3 mm 1 mps 575 mmHg 81%
09:00 +12°C° 0.3 mm 1 mps 576 mmHg 77%
10:00 +13°C° 0.3 mm 1 mps 576 mmHg 73%
11:00 +13°C° 1.3 mm 2 mps 576 mmHg 75%
12:00 +13°C° 1.3 mm 2 mps 576 mmHg 77%
13:00 +13°C° 1.3 mm 2 mps 576 mmHg 79%
14:00 +13°C° 1.4 mm 2 mps 576 mmHg 81%
15:00 +12°C° 1.4 mm 2 mps 576 mmHg 83%
16:00 +10°C° 1.4 mm 2 mps 575 mmHg 85%
17:00 +9°C° 0.6 mm 2 mps 575 mmHg 89%
18:00 +9°C° 0.6 mm 2 mps 575 mmHg 92%
19:00 +8°C° 0.6 mm 2 mps 575 mmHg 95%
20:00 +9°C° 0.3 mm 1 mps 575 mmHg 94%
21:00 +8°C° 0.3 mm 1 mps 575 mmHg 94%
22:00 +8°C° 0.3 mm 1 mps 575 mmHg 93%
23:00 +8°C° 0 mm 1 mps 575 mmHg 92%

18 August, Tuesday

Time Temperature Precipitation Wind Pressure Humidity
00:00 +6°C° 0 mm 0 mps 574 mmHg 90%
01:00 +6°C° 0 mm 0 mps 574 mmHg 89%
02:00 +6°C° 0 mm 0 mps 574 mmHg 89%
03:00 +5°C° 0 mm 0 mps 573 mmHg 89%
04:00 +5°C° 0 mm 0 mps 573 mmHg 88%
05:00 +6°C° 0 mm 0 mps 574 mmHg 85%
06:00 +7°C° 0 mm 0 mps 574 mmHg 82%
07:00 +7°C° 0 mm 0 mps 574 mmHg 79%
08:00 +9°C° 0 mm 0 mps 575 mmHg 75%
09:00 +10°C° 0 mm 0 mps 575 mmHg 70%
10:00 +13°C° 0 mm 1 mps 576 mmHg 66%
11:00 +13°C° 0.7 mm 1 mps 576 mmHg 66%
12:00 +13°C° 0.7 mm 1 mps 576 mmHg 67%
13:00 +13°C° 0.7 mm 1 mps 576 mmHg 68%
14:00 +12°C° 1.3 mm 1 mps 575 mmHg 73%
15:00 +12°C° 1.3 mm 1 mps 575 mmHg 78%
16:00 +11°C° 1.3 mm 1 mps 574 mmHg 84%
17:00 +10°C° 0.6 mm 1 mps 574 mmHg 86%
18:00 +10°C° 0.6 mm 1 mps 574 mmHg 89%
19:00 +9°C° 0.6 mm 1 mps 573 mmHg 92%
20:00 +7°C° 0.2 mm 0 mps 573 mmHg 92%
21:00 +7°C° 0.2 mm 0 mps 573 mmHg 93%
22:00 +6°C° 0.2 mm 0 mps 573 mmHg 94%
23:00 +7°C° 0.6 mm 0 mps 573 mmHg 94%

19 August, Wednesday

Time Temperature Precipitation Wind Pressure Humidity
00:00 +7°C° 0.6 mm 0 mps 573 mmHg 94%
01:00 +7°C° 0.6 mm 0 mps 573 mmHg 94%
02:00 +7°C° 1.8 mm 0 mps 573 mmHg 94%
03:00 +8°C° 1.8 mm 1 mps 573 mmHg 95%
04:00 +7°C° 1.8 mm 1 mps 573 mmHg 95%
05:00 +7°C° 1 mm 1 mps 573 mmHg 94%
06:00 +7°C° 1 mm 1 mps 573 mmHg 94%
07:00 +7°C° 1 mm 1 mps 573 mmHg 93%
08:00 +8°C° 0.4 mm 1 mps 573 mmHg 91%
09:00 +8°C° 0.4 mm 1 mps 573 mmHg 90%
10:00 +8°C° 0.4 mm 1 mps 574 mmHg 89%
11:00 +9°C° 0.3 mm 1 mps 574 mmHg 86%
12:00 +9°C° 0.3 mm 1 mps 574 mmHg 84%
13:00 +9°C° 0.3 mm 2 mps 574 mmHg 81%
14:00 +9°C° 0.2 mm 2 mps 575 mmHg 79%
15:00 +10°C° 0.2 mm 2 mps 575 mmHg 76%
16:00 +12°C° 0.2 mm 2 mps 575 mmHg 74%
17:00 +10°C° 0.2 mm 2 mps 575 mmHg 80%
18:00 +9°C° 0.2 mm 2 mps 574 mmHg 85%
19:00 +7°C° 0.2 mm 2 mps 574 mmHg 91%
20:00 +7°C° 0 mm 1 mps 574 mmHg 93%
21:00 +6°C° 0 mm 1 mps 574 mmHg 95%
22:00 +6°C° 0 mm 1 mps 573 mmHg 97%
23:00 +5°C° 0 mm 1 mps 573 mmHg 96%

20 August, Thursday

Time Temperature Precipitation Wind Pressure Humidity
00:00 +5°C° 0 mm 1 mps 573 mmHg 96%
01:00 +4°C° 0 mm 0 mps 573 mmHg 95%
02:00 +4°C° 0 mm 1 mps 573 mmHg 94%
03:00 +4°C° 0 mm 1 mps 573 mmHg 94%
04:00 +4°C° 0 mm 1 mps 572 mmHg 93%
05:00 +5°C° 0 mm 1 mps 573 mmHg 88%
06:00 +7°C° 0 mm 1 mps 574 mmHg 83%
07:00 +8°C° 0 mm 1 mps 575 mmHg 78%
08:00 +10°C° 0 mm 1 mps 576 mmHg 69%
09:00 +13°C° 0 mm 1 mps 577 mmHg 59%
10:00 +15°C° 0 mm 1 mps 579 mmHg 50%
11:00 +16°C° 0 mm 1 mps 579 mmHg 46%
12:00 +18°C° 0 mm 1 mps 579 mmHg 42%
13:00 +19°C° 0 mm 1 mps 580 mmHg 38%
14:00 +19°C° 0 mm 1 mps 580 mmHg 39%
15:00 +19°C° 0 mm 1 mps 580 mmHg 39%
16:00 +19°C° 0 mm 1 mps 580 mmHg 40%
17:00 +16°C° 0 mm 1 mps 578 mmHg 52%
18:00 +14°C° 0 mm 1 mps 577 mmHg 64%
19:00 +12°C° 0 mm 1 mps 576 mmHg 77%
20:00 +9°C° 0 mm 0 mps 576 mmHg 80%
21:00 +8°C° 0 mm 0 mps 576 mmHg 83%
22:00 +7°C° 0 mm 0 mps 576 mmHg 87%
23:00 +7°C° 0 mm 0 mps 576 mmHg 87%
Show more